[[{"header":{"parameterUnit":"m.s-1","parameterCategory":1,"la1":30.2991,"la2":30.254,"lo1":-89.0895,"lo2":-89.0444,"dy":0.0017,"dx":0.0017,"nx":28,"ny":28,"refTime":"2024-07-18T03:00:00:Z","depth":0,"parameterNumber":2,"parameterNumberName":"U-component_of_WINDS"},"data":[0,0,0,0,0,0,0,0,0,0,0,0,0,0,0,0,0,0,0,0,0,0,0,0,0,0,0,0,0,0,0,0,0,0,0,0,0,0,0,0,0,0,0,0,0,0,0,0,0,0,0,0,0,0,0,0,0,0,-1.5078,-1.5078,0,-1.5067,-1.5067,-1.5067,-1.5015,-1.5014,-1.5013,-1.5012,-1.5001,-1.5002,-1.5003,0,0,0,0,0,0,0,0,0,0,0,0,0,-1.5054,-1.5055,-1.5078,-1.5078,-1.5078,-1.5067,-1.5067,-1.5067,-1.5015,-1.5014,-1.5012,-1.5011,-1.5001,-1.5002,-1.5003,0,0,0,0,0,0,0,0,0,0,0,0,0,-1.5056,-1.5055,-1.5078,-1.5051,-1.5048,-1.5067,-1.5067,-1.5067,-1.5016,-1.5014,-1.5012,-1.501,-1.5001,-1.5002,-1.5003,-1.5048,0,0,-1.5007,-1.5008,0,0,0,0,0,0,0,0,-1.5056,-1.5057,-1.5055,-1.5053,-1.505,-1.5041,-1.5055,-1.5061,-1.5016,-1.5028,-1.5012,-1.5009,-1.5016,-1.5016,-1.5018,-1.5047,-1.5047,-1.5007,-1.5008,-1.5009,-1.5009,0,0,0,0,0,0,0,-1.5056,-1.5057,-1.5074,-1.5055,-1.5052,-1.5039,-1.5037,-1.5056,-1.5033,-1.5027,-1.5023,-1.5023,-1.5014,-1.5017,-1.5017,-1.5047,-1.5007,-1.5008,-1.5009,-1.501,-1.5111,-1.5113,0,0,0,0,0,0,-1.506,-1.5058,-1.5074,-1.5074,-1.5049,-1.5041,-1.5039,-1.5046,-1.5032,-1.5028,-1.5024,-1.502,-1.5015,-1.5016,-1.5017,-1.5067,-1.5009,-1.501,-1.5011,-1.5109,-1.5112,-1.5114,0,0,0,0,0,0,-1.506,-1.5062,-1.5075,-1.5065,-1.5065,-1.5043,-1.5051,-1.5046,-1.5049,-1.503,-1.5026,-1.5031,-1.5014,-1.5015,-1.504,-1.5066,-1.501,-1.5012,-1.5107,-1.511,-1.5113,-1.5169,0,0,0,0,0,0,-1.5059,-1.5062,-1.5079,-1.5065,-1.5066,-1.5099,-1.5053,-1.5047,-1.5051,-1.5046,-1.5035,-1.5032,-1.5013,-1.5038,-1.5041,-1.5067,-1.5013,-1.5104,-1.5108,-1.5112,-1.5165,-1.5174,-1.5181,0,0,0,0,0,-1.5058,-1.5096,-1.508,-1.5082,-1.5087,-1.51,-1.5101,-1.5077,-1.5053,-1.507,-1.5058,-1.5032,-1.5063,-1.5042,-1.5044,-1.5071,-1.5103,-1.5107,-1.5111,-1.5161,-1.5172,-1.5181,0,0,0,0,0,0,-1.5114,-1.5094,-1.5076,-1.511,-1.5107,-1.5091,-1.5112,-1.509,-1.5094,-1.5089,-1.506,-1.5058,-1.5088,-1.5082,-1.5058,-1.5112,-1.5078,-1.5083,-1.5115,-1.5125,-1.5133,-1.5134,-1.5014,0,0,0,0,0,-1.513,-1.5142,-1.5124,-1.5156,-1.5155,-1.5134,-1.5139,-1.5121,-1.5117,-1.5116,-1.5106,-1.5103,-1.5112,-1.5118,-1.5125,-1.5164,-1.516,-1.5183,-1.5191,-1.5198,-1.5203,-1.5221,-1.5231,-1.5128,-1.5128,-1.5128,0,0,-1.5163,-1.5154,-1.5164,-1.5167,-1.5162,-1.5176,-1.5133,-1.515,-1.5159,-1.5119,-1.5141,-1.5134,-1.5129,-1.5161,-1.5174,-1.5156,-1.523,-1.5204,-1.5209,-1.521,-1.5227,-1.5237,-1.5245,-1.5131,-1.513,-1.513,0,0,-1.5231,-1.5225,-1.525,-1.5247,-1.5241,-1.5226,-1.5232,-1.5219,-1.5213,-1.5235,-1.5204,-1.5215,-1.5232,-1.5229,-1.523,-1.5295,-1.5272,-1.5299,-1.5341,-1.5359,-1.5367,-1.5374,-1.5397,-1.5405,-1.5303,-1.5303,-1.5303,0,-1.5273,-1.5292,-1.5266,-1.5284,-1.5286,-1.5249,-1.5274,-1.5272,-1.5269,-1.5271,-1.5252,-1.527,-1.5264,-1.5294,-1.531,-1.5312,-1.5318,-1.5299,-1.5368,-1.5375,-1.5381,-1.5402,-1.5411,-1.5307,-1.5306,-1.5306,-1.5306,0,-1.5344,-1.5358,-1.5379,-1.5376,-1.538,-1.5402,-1.5379,-1.5387,-1.5368,-1.5356,-1.5379,-1.537,-1.5374,-1.538,-1.5363,-1.5408,-1.5397,-1.5373,-1.5338,-1.5395,-1.5414,-1.5422,-1.5311,-1.531,-1.5309,-1.5308,0,0,-1.5447,-1.5428,-1.5436,-1.5434,-1.5424,-1.5434,-1.5453,-1.5457,-1.5464,-1.5463,-1.5478,-1.5492,-1.5469,-1.547,-1.5453,-1.5469,-1.552,-1.5443,-1.5442,-1.5457,-1.5568,-1.5585,-1.5595,-1.5504,-1.5506,-1.5507,-1.5568,0,-1.5511,-1.5543,-1.5519,-1.5555,-1.5567,-1.5532,-1.5549,-1.5544,-1.5533,-1.5541,-1.5528,-1.5538,-1.5509,-1.5509,-1.5524,-1.5511,-1.5542,-1.5506,-1.5518,-1.5519,-1.552,-1.5605,-1.5624,-1.5681,-1.5575,-1.5576,-1.5577,0,-1.559,-1.5591,-1.5628,-1.5614,-1.5618,-1.5634,-1.5635,-1.5643,-1.5637,-1.5627,-1.5628,-1.5605,-1.5623,-1.5589,-1.5613,-1.5589,-1.5593,-1.5587,-1.5589,-1.5589,-1.5551,-1.5607,-1.5699,-1.5708,-1.5589,-1.5588,-1.5587,0,-1.566,-1.5671,-1.5694,-1.5693,-1.5678,-1.5689,-1.5684,-1.5676,-1.5679,-1.568,-1.5682,-1.5685,-1.5687,-1.569,-1.5669,-1.5646,-1.5695,-1.5659,-1.5687,-1.5688,-1.5699,-1.5698,-1.5793,-1.5702,-1.5702,-1.5702,-1.5702,0,-1.5733,-1.5757,-1.5725,-1.5739,-1.5764,-1.5737,-1.5763,-1.5754,-1.5747,-1.5759,-1.5729,-1.574,-1.5712,-1.572,-1.5704,-1.5726,-1.5727,-1.5719,-1.5715,-1.5722,-1.5723,-1.5723,-1.5719,-1.5704,-1.5704,-1.5703,-1.5703,0,-1.5816,-1.5795,-1.5818,-1.5801,-1.5798,-1.5817,-1.5803,-1.5815,-1.5801,-1.5816,-1.5818,-1.5797,-1.5805,-1.5784,-1.579,-1.5778,-1.581,-1.5799,-1.5811,-1.5808,-1.5837,-1.5834,-1.5934,-1.5946,-1.5849,-1.585,-1.585,0,-1.5864,-1.5881,-1.5866,-1.5871,-1.5867,-1.5876,-1.5879,-1.5853,-1.5857,-1.5851,-1.5864,-1.5869,-1.5872,-1.5887,-1.5872,-1.5876,-1.5865,-1.59,-1.5865,-1.5871,-1.5864,-1.5863,-1.5865,-1.5907,-1.5908,-1.5909,-1.591,0,-1.5951,-1.594,-1.5945,-1.5946,-1.595,-1.595,-1.5948,-1.5954,-1.5926,-1.5932,-1.594,-1.5942,-1.5947,-1.5953,-1.5953,-1.5947,-1.5924,-1.5921,-1.5927,-1.5934,-1.5941,-1.5937,-1.583,-1.5918,-1.5918,-1.5917,-1.5916,-1.5916,-1.6017,-1.603,-1.6021,-1.6028,-1.6023,-1.6021,-1.6032,-1.6019,-1.6025,-1.6026,-1.601,-1.6021,-1.6014,-1.6012,-1.6008,-1.6016,-1.6,-1.601,-1.6012,-1.6015,-1.6019,-1.594,-1.6016,-1.6016,-1.6016,-1.6015,-1.6015,0,-1.6102,-1.6094,-1.61,-1.6097,-1.6102,-1.6079,-1.6075,-1.6081,-1.6091,-1.6085,-1.6089,-1.6097,-1.6103,-1.6088,-1.609,-1.61,-1.6089,-1.6101,-1.61,-1.6099,-1.6034,-1.6027,-1.611,-1.611,-1.611,-1.611,-1.611,-1.611,-1.6147,-1.6167,-1.6155,-1.6173,-1.6165,-1.6175,-1.6174,-1.6172,-1.6168,-1.6179,-1.6182,-1.6172,-1.6163,-1.6165,-1.6168,-1.6164,-1.6166,-1.6182,-1.6174,-1.6113,-1.6104,-1.6095,-1.6089,-1.6183,-1.6183,-1.6238,-1.6239,-1.6239]},{"header":{"parameterUnit":"m.s-1","parameterCategory":1,"la1":30.2991,"la2":30.254,"lo1":-89.0895,"lo2":-89.0444,"dy":0.0017,"dx":0.0017,"nx":28,"ny":28,"refTime":"2024-07-18T03:00:00:Z","depth":0,"parameterNumber":3,"parameterNumberName":"V-component_of_WINDS"},"data":[0,0,0,0,0,0,0,0,0,0,0,0,0,0,0,0,0,0,0,0,0,0,0,0,0,0,0,0,0,0,0,0,0,0,0,0,0,0,0,0,0,0,0,0,0,0,0,0,0,0,0,0,0,0,0,0,0,0,1.6784,1.6784,0,1.6724,1.6723,1.6723,1.6648,1.6646,1.6645,1.6644,1.6582,1.6582,1.6581,0,0,0,0,0,0,0,0,0,0,0,0,0,1.6834,1.6834,1.6784,1.6784,1.6783,1.6724,1.6723,1.6723,1.6648,1.6646,1.6645,1.6644,1.6583,1.6582,1.6581,0,0,0,0,0,0,0,0,0,0,0,0,0,1.6797,1.6834,1.6784,1.6738,1.6734,1.6724,1.6723,1.6722,1.6648,1.6646,1.6645,1.6643,1.6583,1.6582,1.6581,1.6612,0,0,1.6579,1.6578,0,0,0,0,0,0,0,0,1.6799,1.6795,1.6746,1.6742,1.6736,1.6692,1.6718,1.6685,1.6649,1.6681,1.6644,1.6642,1.662,1.6616,1.6609,1.6609,1.6606,1.6579,1.6578,1.6578,1.6578,0,0,0,0,0,0,0,1.6802,1.6798,1.676,1.6745,1.6739,1.6721,1.6714,1.6712,1.6661,1.6678,1.6672,1.6666,1.6617,1.661,1.6607,1.6606,1.6579,1.6578,1.6577,1.6577,1.6628,1.663,0,0,0,0,0,0,1.6812,1.68,1.6762,1.6759,1.6764,1.6721,1.6713,1.6708,1.6661,1.6652,1.6668,1.6663,1.6612,1.6608,1.6604,1.6637,1.6578,1.6577,1.6577,1.6626,1.6628,1.663,0,0,0,0,0,0,1.6813,1.6809,1.6765,1.6778,1.6771,1.6722,1.6717,1.6707,1.67,1.6653,1.6644,1.6669,1.661,1.6605,1.6611,1.6634,1.6577,1.6576,1.6624,1.6627,1.6629,1.6704,0,0,0,0,0,0,1.6815,1.681,1.6821,1.6779,1.677,1.6773,1.6718,1.6708,1.6699,1.6692,1.6652,1.6644,1.6609,1.6612,1.661,1.6632,1.6575,1.6622,1.6625,1.6628,1.6699,1.6709,1.6717,0,0,0,0,0,1.6817,1.6845,1.6822,1.6818,1.6784,1.6774,1.6769,1.6728,1.6701,1.6712,1.6682,1.6645,1.6632,1.6613,1.661,1.6632,1.662,1.6624,1.6628,1.6695,1.6707,1.6717,0,0,0,0,0,0,1.6891,1.6838,1.6813,1.6828,1.6806,1.6761,1.6774,1.6742,1.6727,1.6721,1.667,1.6662,1.6673,1.6653,1.6633,1.6659,1.662,1.6624,1.6672,1.6683,1.6692,1.6697,1.6575,0,0,0,0,0,1.6909,1.6906,1.686,1.6877,1.6868,1.6823,1.6817,1.6787,1.6762,1.6753,1.6723,1.6701,1.6691,1.6686,1.6675,1.6695,1.6686,1.6709,1.6718,1.6726,1.6729,1.6739,1.6749,1.6644,1.6644,1.6644,0,0,1.6947,1.6917,1.6918,1.6891,1.6871,1.6869,1.6816,1.6815,1.6813,1.6753,1.6756,1.6733,1.6705,1.6718,1.6722,1.6702,1.6756,1.6731,1.6737,1.6737,1.6744,1.6754,1.6763,1.6647,1.6646,1.6646,0,0,1.7013,1.6991,1.7003,1.6984,1.6953,1.6923,1.6927,1.6887,1.687,1.6872,1.6826,1.6823,1.6808,1.6789,1.6778,1.6838,1.6804,1.6835,1.6883,1.6892,1.6901,1.6908,1.6929,1.6937,1.6839,1.684,1.684,0,1.7064,1.7058,1.7013,1.7016,1.7005,1.6951,1.6962,1.6946,1.6914,1.6908,1.6885,1.6865,1.6841,1.685,1.6864,1.6857,1.6859,1.684,1.6903,1.691,1.6916,1.6935,1.6944,1.6844,1.6843,1.6843,1.6842,0,1.7122,1.7119,1.7132,1.7102,1.7093,1.71,1.7056,1.7053,1.7023,1.6996,1.6999,1.6969,1.6951,1.6951,1.6922,1.6955,1.6943,1.6912,1.6872,1.693,1.6948,1.6955,1.6849,1.6848,1.6847,1.6846,0,0,1.7234,1.7179,1.7185,1.717,1.7133,1.713,1.7134,1.7116,1.7114,1.7094,1.7096,1.7085,1.7056,1.7044,1.7012,1.7021,1.707,1.6989,1.6988,1.7005,1.7104,1.7128,1.7137,1.7047,1.7049,1.705,1.7107,0,1.7294,1.7298,1.7258,1.7274,1.7271,1.7218,1.7222,1.72,1.7174,1.7168,1.7139,1.7132,1.7095,1.7087,1.7093,1.7063,1.709,1.7058,1.7049,1.705,1.7058,1.7146,1.7171,1.7226,1.7113,1.7115,1.7115,0,1.7364,1.7348,1.7363,1.7325,1.7322,1.7326,1.7307,1.7301,1.7274,1.7255,1.7241,1.7205,1.7207,1.7169,1.717,1.715,1.7144,1.7129,1.713,1.7128,1.7086,1.7147,1.7243,1.7251,1.7126,1.7125,1.7124,0,1.7444,1.7426,1.7433,1.7422,1.7378,1.7382,1.7364,1.7335,1.7327,1.731,1.7304,1.7288,1.7279,1.7266,1.7227,1.7203,1.7233,1.7192,1.7217,1.7219,1.7226,1.7226,1.7323,1.7223,1.7222,1.7222,1.7222,0,1.7516,1.7527,1.7468,1.7473,1.7484,1.7438,1.745,1.7427,1.7402,1.74,1.7354,1.7354,1.7302,1.7296,1.7265,1.7271,1.7268,1.7252,1.7244,1.7256,1.7258,1.7252,1.7247,1.7224,1.7224,1.7223,1.7223,0,1.7607,1.7568,1.7572,1.753,1.7519,1.753,1.7493,1.7495,1.7467,1.7466,1.7463,1.7418,1.7409,1.7368,1.7349,1.7328,1.7345,1.7328,1.7354,1.7349,1.7376,1.7374,1.7472,1.7483,1.7376,1.7377,1.7378,0,1.7655,1.7663,1.7621,1.7617,1.7601,1.7595,1.7586,1.7541,1.7534,1.7504,1.751,1.7496,1.7483,1.7471,1.7436,1.7422,1.7404,1.744,1.7402,1.7414,1.7405,1.7405,1.7406,1.7448,1.745,1.7451,1.7452,0,1.7745,1.7725,1.7715,1.7697,1.7688,1.7673,1.7654,1.7653,1.7603,1.7597,1.7587,1.7577,1.7557,1.7545,1.7524,1.7505,1.747,1.7464,1.7469,1.7482,1.7496,1.7489,1.7376,1.7462,1.7461,1.746,1.7459,1.7459,1.7816,1.782,1.7792,1.7781,1.7763,1.7746,1.7746,1.7718,1.7708,1.7689,1.7663,1.7656,1.7629,1.7597,1.7581,1.7575,1.7555,1.7563,1.7565,1.7567,1.7573,1.7497,1.7571,1.7571,1.757,1.757,1.757,0,1.7903,1.7882,1.7873,1.7849,1.7841,1.7808,1.7786,1.7782,1.7776,1.7754,1.7742,1.773,1.7718,1.7683,1.7667,1.7669,1.7652,1.7666,1.7666,1.7662,1.7592,1.7589,1.768,1.768,1.768,1.768,1.768,1.768,1.7948,1.7953,1.793,1.7926,1.7905,1.7898,1.7888,1.7873,1.7854,1.7843,1.7833,1.781,1.7782,1.7764,1.7751,1.7741,1.7738,1.7757,1.7742,1.7677,1.7667,1.7657,1.7654,1.7756,1.7756,1.7812,1.7812,1.7813]}]]